Regional Weather Roundup
Issued by NWS Charleston, WV

Home | Current Version | Previous Version | Graphics & Text | Print | Product List | Glossary On
Versions: 1 2 3 4 5 6 7 8 9 10 11 12 13 14 15 16 17 18 19 20 21 22 23 24 25 26 27 28 29 30 31 32 33 34 35 36 37 38 39 40 41 42 43 44 45 46 47 48 49
000
ASUS41 KRLX 021910
RWRRLX
West Virginia Regional Weather Roundup
National Weather Service Charleston WV
300 PM EDT TUE JUN 02 2015

Note: "fair" indicates few or no clouds below 12,000 feet with no
significant weather and/or obstructions to visibility.

WVZ003-022000-
Northern Panhandle of West Virginia

CITY           SKY/WX    TMP DP  RH WIND       PRES   REMARKS
WHEELING       CLOUDY    60  52  74 N8        30.13F
$$

WVZ009-022000-
Northwest West Virginia

CITY           SKY/WX    TMP DP  RH WIND       PRES   REMARKS
PARKERSBURG    CLOUDY    61  54  77 N3        30.14F
$$

WVZ006-022000-
Western West Virginia

CITY           SKY/WX    TMP DP  RH WIND       PRES   REMARKS
HUNTINGTON     CLOUDY    58  54  86 NE6       30.10F
$$

WVZ015-022000-
West Central West Virginia

CITY           SKY/WX    TMP DP  RH WIND       PRES   REMARKS
CHARLESTON     CLOUDY    59  55  87 VRB5      30.09F
$$

WVZ022-031-022000-
North Central West Virginia

CITY           SKY/WX    TMP DP  RH WIND       PRES   REMARKS
CLARKSBURG     CLOUDY    59  55  87 N5        30.11F
MORGANTOWN     CLOUDY    60  54  80 N7        30.12F
$$

WVZ025-035-042-045-022000-
Southern West Virginia

CITY           SKY/WX    TMP DP  RH WIND       PRES   REMARKS
BECKLEY        CLOUDY    61  57  87 N6        30.09F
LOGAN          CLOUDY    59  57  94 CALM      30.05F
BLUEFIELD      PTSUNNY   72  58  61 NW7       30.09F
LEWISBURG      CLOUDY    73  57  57 SW6       30.06F
$$

WVZ047-022000-
Northern Mountains of West Virginia

CITY           SKY/WX    TMP DP  RH WIND       PRES   REMARKS
ELKINS         CLOUDY    61  55  81 NW7       30.11F
$$

WVZ052-022000-
Eastern Panhandle of West Virginia

CITY           SKY/WX    TMP DP  RH WIND       PRES   REMARKS
MARTINSBURG    CLOUDY    62  56  80 N10       30.12F
PETERSBURG     CLOUDY    63  58  85 N3        30.11F
$$


USA.gov is the U.S. government's official web portal to all federal, state and local government web resources and services.